When you browse on this site, cookies collect data to enhance your experience and personalize the content and advertising you see.
Visit our Privacy Policy to learn more. By continuing to use the site, you agree to this use of cookies and data.
  • In Czech Republic
  • List of Countries
  • For 7 days
  • Water Temperature
  • Satellite Maps
  • Weather Map
  • Weather Widgets
  • user-avatar
    Login

    Hourly Weather Dumfries

    Today, 17 January, Thursday

    Time Temperature Precipitation Wind Pressure Humidity
    00:00 -1°C° 0 mm 5 mps 749 mmHg 68%
    01:00 -1°C° 0 mm 5 mps 750 mmHg 67%
    02:00 -1°C° 0 mm 4 mps 751 mmHg 66%
    03:00 -1°C° 0 mm 4 mps 752 mmHg 65%
    04:00 -1°C° 0 mm 4 mps 752 mmHg 65%
    05:00 -1°C° 0 mm 4 mps 753 mmHg 64%
    06:00 -1°C° 0 mm 4 mps 753 mmHg 64%
    07:00 -1°C° 0 mm 4 mps 754 mmHg 64%
    08:00 0°C° 0 mm 3 mps 755 mmHg 64%
    09:00 0°C° 0 mm 3 mps 756 mmHg 64%
    10:00 +1°C° 0 mm 3 mps 756 mmHg 61%
    11:00 +1°C° 0 mm 4 mps 757 mmHg 58%
    12:00 +3°C° 0 mm 4 mps 758 mmHg 54%
    13:00 +3°C° 0 mm 3 mps 758 mmHg 56%
    14:00 +4°C° 0 mm 2 mps 758 mmHg 58%
    15:00 +4°C° 0 mm 1 mps 759 mmHg 60%
    16:00 +4°C° 0 mm 1 mps 759 mmHg 63%
    17:00 +3°C° 0 mm 1 mps 759 mmHg 66%
    18:00 +2°C° 0 mm 1 mps 759 mmHg 69%
    19:00 +2°C° 0 mm 1 mps 759 mmHg 69%
    20:00 +2°C° 0 mm 1 mps 759 mmHg 68%
    21:00 +1°C° 0 mm 0 mps 759 mmHg 68%
    22:00 +2°C° 0 mm 1 mps 759 mmHg 69%
    23:00 +2°C° 0 mm 1 mps 759 mmHg 69%

    Tomorrow, 18 January, Friday

    Time Temperature Precipitation Wind Pressure Humidity
    00:00 +2°C° 0 mm 1 mps 759 mmHg 69%
    01:00 +2°C° 0 mm 1 mps 758 mmHg 69%
    02:00 +1°C° 0 mm 1 mps 758 mmHg 69%
    03:00 +1°C° 0 mm 1 mps 758 mmHg 69%
    04:00 +1°C° 0 mm 1 mps 757 mmHg 69%
    05:00 -1°C° 0 mm 2 mps 757 mmHg 70%
    06:00 -1°C° 0 mm 2 mps 756 mmHg 70%
    07:00 -1°C° 0 mm 2 mps 756 mmHg 71%
    08:00 +1°C° 0 mm 2 mps 756 mmHg 72%
    09:00 +1°C° 0 mm 2 mps 755 mmHg 73%
    10:00 0°C° 0.1 mm 3 mps 755 mmHg 72%
    11:00 +1°C° 0.1 mm 3 mps 755 mmHg 70%
    12:00 +2°C° 0.1 mm 3 mps 754 mmHg 69%
    13:00 +2°C° 0.3 mm 3 mps 754 mmHg 70%
    14:00 +1°C° 0.3 mm 3 mps 753 mmHg 72%
    15:00 +1°C° 0.3 mm 3 mps 753 mmHg 73%
    16:00 +1°C° 0.3 mm 3 mps 752 mmHg 74%
    17:00 +1°C° 0.3 mm 3 mps 752 mmHg 76%
    18:00 +1°C° 0.3 mm 3 mps 752 mmHg 77%
    19:00 +1°C° 0.1 mm 3 mps 752 mmHg 80%
    20:00 +1°C° 0.1 mm 3 mps 751 mmHg 82%
    21:00 +1°C° 0.1 mm 3 mps 751 mmHg 84%
    22:00 +1°C° 0.1 mm 3 mps 751 mmHg 86%
    23:00 +2°C° 0.1 mm 2 mps 751 mmHg 89%

    Day after tomorrow, 19 January, Saturday

    Time Temperature Precipitation Wind Pressure Humidity
    00:00 +2°C° 0.1 mm 2 mps 751 mmHg 91%
    01:00 +2°C° 0.1 mm 2 mps 750 mmHg 92%
    02:00 +2°C° 0.1 mm 2 mps 750 mmHg 93%
    03:00 +2°C° 0.1 mm 2 mps 750 mmHg 94%
    04:00 +2°C° 0.6 mm 2 mps 750 mmHg 94%
    05:00 +2°C° 0.6 mm 2 mps 750 mmHg 94%
    06:00 +2°C° 0.6 mm 2 mps 749 mmHg 95%
    07:00 +3°C° 0.1 mm 1 mps 749 mmHg 95%
    08:00 +3°C° 0.1 mm 1 mps 750 mmHg 96%
    09:00 +3°C° 0.1 mm 1 mps 750 mmHg 96%
    10:00 +3°C° 0 mm 1 mps 750 mmHg 96%
    11:00 +3°C° 0 mm 1 mps 750 mmHg 96%
    12:00 +4°C° 0 mm 1 mps 750 mmHg 96%
    13:00 +4°C° 0 mm 1 mps 750 mmHg 96%
    14:00 +4°C° 0 mm 1 mps 750 mmHg 96%
    15:00 +3°C° 0 mm 1 mps 750 mmHg 96%
    16:00 +3°C° 0 mm 1 mps 750 mmHg 96%
    17:00 +2°C° 0 mm 1 mps 750 mmHg 96%
    18:00 +2°C° 0 mm 1 mps 750 mmHg 96%
    19:00 +2°C° 0 mm 1 mps 751 mmHg 96%
    20:00 +2°C° 0 mm 1 mps 751 mmHg 96%
    21:00 +2°C° 0 mm 1 mps 751 mmHg 96%
    22:00 +2°C° 0 mm 1 mps 752 mmHg 96%
    23:00 +2°C° 0 mm 1 mps 752 mmHg 96%

    20 January, Sunday

    Time Temperature Precipitation Wind Pressure Humidity
    00:00 +3°C° 0 mm 1 mps 752 mmHg 96%
    01:00 +3°C° 0.1 mm 1 mps 753 mmHg 96%
    02:00 +3°C° 0.1 mm 1 mps 753 mmHg 95%
    03:00 +3°C° 0.1 mm 1 mps 754 mmHg 95%
    04:00 +2°C° 0 mm 2 mps 754 mmHg 93%
    05:00 +2°C° 0 mm 3 mps 755 mmHg 91%
    06:00 +1°C° 0 mm 4 mps 756 mmHg 89%
    07:00 +1°C° 0.1 mm 4 mps 757 mmHg 86%
    08:00 0°C° 0.1 mm 4 mps 758 mmHg 83%
    09:00 +1°C° 0.1 mm 3 mps 758 mmHg 80%
    10:00 +1°C° 0 mm 3 mps 759 mmHg 79%
    11:00 +2°C° 0 mm 3 mps 760 mmHg 79%
    12:00 +3°C° 0 mm 2 mps 760 mmHg 78%
    13:00 +2°C° 0 mm 3 mps 761 mmHg 78%
    14:00 +2°C° 0 mm 3 mps 761 mmHg 79%
    15:00 +2°C° 0 mm 3 mps 761 mmHg 79%
    16:00 +1°C° 0 mm 3 mps 762 mmHg 80%
    17:00 +1°C° 0 mm 3 mps 762 mmHg 81%
    18:00 0°C° 0 mm 3 mps 762 mmHg 81%
    19:00 0°C° 0 mm 3 mps 763 mmHg 82%
    20:00 -1°C° 0 mm 3 mps 763 mmHg 82%
    21:00 -1°C° 0 mm 2 mps 764 mmHg 83%
    22:00 -1°C° 0 mm 2 mps 764 mmHg 83%
    23:00 -1°C° 0 mm 2 mps 764 mmHg 84%

    21 January, Monday

    Time Temperature Precipitation Wind Pressure Humidity
    00:00 -1°C° 0 mm 2 mps 764 mmHg 84%
    01:00 -1°C° 0 mm 2 mps 764 mmHg 84%
    02:00 +1°C° 0 mm 1 mps 764 mmHg 84%
    03:00 +1°C° 0 mm 1 mps 764 mmHg 84%
    04:00 +1°C° 0 mm 1 mps 763 mmHg 86%
    05:00 -1°C° 0 mm 2 mps 763 mmHg 87%
    06:00 +1°C° 0 mm 2 mps 762 mmHg 88%
    07:00 +1°C° 0 mm 2 mps 761 mmHg 88%
    08:00 +1°C° 0 mm 2 mps 761 mmHg 89%
    09:00 +1°C° 0 mm 3 mps 760 mmHg 89%
    10:00 +1°C° 0.1 mm 3 mps 759 mmHg 88%
    11:00 +1°C° 0.1 mm 4 mps 758 mmHg 86%
    12:00 +1°C° 0.1 mm 4 mps 757 mmHg 85%
    13:00 +1°C° 0.2 mm 4 mps 755 mmHg 85%
    14:00 +1°C° 0.2 mm 4 mps 754 mmHg 85%
    15:00 +1°C° 0.2 mm 4 mps 752 mmHg 85%
    16:00 +1°C° 0.5 mm 4 mps 751 mmHg 86%
    17:00 +1°C° 0.5 mm 4 mps 749 mmHg 88%
    18:00 +1°C° 0.5 mm 4 mps 748 mmHg 89%
    19:00 +1°C° 1.2 mm 5 mps 747 mmHg 89%
    20:00 +1°C° 1.2 mm 5 mps 746 mmHg 89%
    21:00 +1°C° 1.2 mm 5 mps 745 mmHg 88%
    22:00 0°C° 0.9 mm 5 mps 744 mmHg 89%
    23:00 0°C° 0.9 mm 4 mps 744 mmHg 90%

    22 January, Tuesday

    Time Temperature Precipitation Wind Pressure Humidity
    00:00 0°C° 0.9 mm 4 mps 743 mmHg 91%
    01:00 +1°C° 0.9 mm 3 mps 743 mmHg 92%
    02:00 +1°C° 0.9 mm 3 mps 743 mmHg 93%
    03:00 +1°C° 0.9 mm 3 mps 743 mmHg 94%
    04:00 +1°C° 0.1 mm 3 mps 743 mmHg 94%
    05:00 +1°C° 0.1 mm 3 mps 743 mmHg 95%
    06:00 +1°C° 0.1 mm 3 mps 742 mmHg 95%
    07:00 +2°C° 0.1 mm 2 mps 743 mmHg 96%
    08:00 +2°C° 0.1 mm 2 mps 743 mmHg 96%
    09:00 +2°C° 0.1 mm 2 mps 744 mmHg 97%
    10:00 +2°C° 0 mm 2 mps 744 mmHg 97%
    11:00 +2°C° 0 mm 2 mps 744 mmHg 98%
    12:00 +3°C° 0 mm 2 mps 744 mmHg 98%
    13:00 +3°C° 0 mm 2 mps 745 mmHg 98%
    14:00 +3°C° 0 mm 2 mps 745 mmHg 98%
    15:00 +3°C° 0 mm 2 mps 745 mmHg 98%
    16:00 +3°C° 0 mm 2 mps 745 mmHg 97%
    17:00 +2°C° 0 mm 2 mps 746 mmHg 97%
    18:00 +2°C° 0 mm 2 mps 747 mmHg 96%
    19:00 +2°C° 0 mm 2 mps 747 mmHg 96%
    20:00 +1°C° 0 mm 3 mps 748 mmHg 95%
    21:00 +2°C° 0 mm 3 mps 749 mmHg 95%
    22:00 +2°C° 0.1 mm 3 mps 749 mmHg 95%
    23:00 +2°C° 0.1 mm 3 mps 750 mmHg 96%
    Show more